Theta_e
310 313 314 315 314 314 312 313 313 313 313 312 312 313 312 312 312 312 313 313 313 313 313 310 310 310 310 308 308 308 307 307 308 309 310 311 310 310 309 309 307 306 305 304
311 313 313 311 310 311 312 313 314 314 312 309 313 313 313 313 313 313 313 313 313 313 313 311 309 309 309 309 308 307 306 305 306 307 308 309 309 308 307 307 305 304 303 302
316 316 311 310 311 311 312 312 314 314 312 312 311 316 315 314 312 312 311 311 312 312 312 310 309 309 309 309 308 307 306 305 304 305 305 306 306 305 305 305 304 303 301 300
312 311 310 310 311 312 314 313 311 311 312 316 311 318 316 315 315 313 312 312 312 312 311 310 310 308 307 305 305 305 304 304 303 302 303 304 304 304 303 303 303 301 300 299
314 310 310 312 312 310 313 309 310 310 312 311 314 314 318 313 315 314 313 312 312 312 310 308 307 305 305 304 303 302 302 302 302 301 302 302 303 303 303 302 302 300 299 298
310 306 309 311 308 309 308 310 310 310 311 316 317 315 317 315 313 312 313 313 314 309 308 306 304 303 302 301 300 299 300 300 300 300 300 301 301 302 302 302 300 300 299 296
312 310 309 307 310 308 309 312 318 322 321 321 314 314 315 315 315 311 312 310 307 306 304 303 301 300 299 298 299 298 298 298 297 298 299 299 300 300 300 301 300 299 298 296
318 320 311 309 312 316 312 315 320 326 323 322 317 316 315 314 311 310 308 305 305 304 303 301 300 298 297 296 296 297 297 297 296 296 296 297 297 298 298 299 299 298 298 297
319 319 308 306 308 311 312 313 313 315 317 319 314 314 315 315 310 308 308 308 306 303 302 301 299 298 296 295 295 295 295 295 294 295 295 295 295 296 296 297 296 296 296 295
313 316 314 309 306 307 310 310 315 313 316 320 314 314 315 314 313 309 307 305 302 301 300 298 297 296 296 294 293 294 293 293 292 292 293 294 293 293 294 295 295 294 295 295
311 316 317 313 315 315 313 310 309 310 314 318 320 317 313 313 310 306 304 302 300 298 296 295 294 293 294 294 292 293 292 293 292 291 291 292 293 292 292 292 293 293 294 294
313 315 318 315 313 312 312 314 314 319 319 316 316 316 312 312 306 301 300 299 296 294 294 293 292 292 292 292 291 291 292 291 291 290 290 291 292 291 291 291 292 292 292 293
313 316 317 318 314 310 312 313 312 314 314 317 317 316 311 307 304 299 299 296 295 294 292 291 290 291 291 291 291 290 290 290 289 289 290 290 290 290 291 291 290 291 291 291
308 310 315 317 314 311 312 314 311 308 310 311 311 309 306 304 299 297 295 294 293 293 291 290 290 290 290 289 289 289 288 288 287 288 288 289 288 287 288 288 289 290 290 290
304 308 308 307 304 302 304 304 303 303 303 304 303 302 302 298 295 294 293 291 290 292 291 289 289 290 289 288 288 288 287 287 286 287 287 288 286 285 285 286 287 289 289 289
299 302 300 300 300 300 300 300 299 298 298 298 299 299 294 293 293 292 291 290 290 291 290 289 289 289 288 288 287 287 286 286 285 286 287 287 284 283 283 284 285 286 288 288
297 298 299 300 298 294 295 296 296 296 296 295 294 295 291 289 289 289 290 290 290 291 289 288 288 288 288 287 286 286 286 285 284 284 285 285 282 282 283 282 283 284 286 287
295 294 295 295 290 294 295 293 294 295 295 295 295 291 290 289 289 289 290 291 290 290 289 289 288 288 287 286 286 285 285 284 283 283 284 283 281 281 281 281 282 282 283 285
294 294 293 293 294 293 292 292 291 291 291 294 292 290 289 289 289 289 290 290 290 290 289 288 287 287 286 285 285 284 283 283 282 282 282 281 280 279 279 278 279 281 282 283
291 293 294 286 293 292 292 289 290 289 291 290 290 290 290 288 288 289 289 289 289 289 289 288 286 285 284 284 284 282 282 282 282 281 281 279 278 278 276 276 277 278 280 281
290 290 293 294 293 292 291 289 289 289 290 289 290 290 290 290 290 290 289 288 288 288 287 286 285 284 283 283 282 281 281 281 280 280 279 278 277 275 274 274 275 276 277 280
290 289 289 284 287 289 288 288 288 290 290 290 290 289 289 289 288 288 288 288 287 286 285 284 283 282 282 281 280 280 280 279 279 278 277 276 274 272 272 272 272 274 275 277
289 289 290 288 289 290 289 290 290 290 290 290 290 289 288 287 286 285 285 284 283 282 281 280 280 279 279 278 277 277 277 277 276 276 273 272 271 271 270 270 271 272 274 277
289 289 289 290 289 289 290 290 290 290 290 289 286 283 282 282 282 281 281 280 279 277 276 275 275 275 274 274 273 273 273 272 269 268 269 269 269 269 269 269 270 271 273 276
290 288 289 290 289 289 289 289 289 288 284 282 281 280 279 279 278 277 276 275 274 273 272 271 270 270 269 268 268 267 267 266 266 266 266 266 266 266 267 267 268 270 271 272
290 289 290 290 290 290 289 289 282 282 280 278 277 277 276 274 274 273 272 271 270 269 268 267 266 265 265 264 263 263 262 262 262 263 263 263 264 264 264 265 266 267 269 271
Wind_Speed
2 7 11 17 17 15 10 14 19 19 19 20 19 18 18 23 21 24 24 19 14 13 13 11 13 13 11 12 13 15 17 19 22 24 26 27 33 31 33 36 38 38 42 43
4 11 16 5 5 10 14 16 19 16 10 4 18 23 23 22 23 22 17 14 11 11 9 12 11 11 11 11 10 12 15 16 20 22 23 23 24 27 29 31 32 36 38 42
18 10 2 9 13 13 11 13 17 19 13 14 14 15 4 6 7 12 8 9 10 9 11 10 10 14 14 16 16 14 12 15 17 19 19 21 21 20 22 32 32 35 34 37
10 4 7 4 9 11 15 11 14 12 6 9 9 13 7 11 13 11 3 2 5 5 5 5 9 18 16 16 17 15 12 11 12 15 19 22 24 24 25 24 27 31 36 40
3 3 3 6 7 10 4 2 1 2 8 9 5 7 3 5 11 6 3 7 6 8 5 8 17 20 19 17 16 15 14 12 9 11 18 20 24 24 23 21 23 28 29 36
11 1 4 3 2 5 2 2 2 1 4 7 5 7 5 4 2 2 11 13 15 20 16 15 22 23 25 27 30 28 24 17 12 7 12 19 23 22 22 21 20 21 25 28
3 6 3 4 5 3 4 4 5 6 5 10 4 10 7 10 12 8 16 19 22 22 20 20 22 26 29 33 32 29 29 28 22 14 12 15 20 22 23 24 23 22 23 24
8 12 9 8 8 6 8 8 7 6 12 20 12 17 7 3 7 13 17 16 16 18 17 18 19 24 27 30 31 31 29 28 29 25 18 14 16 19 22 23 24 25 26 27
5 12 1 5 2 5 5 6 5 8 14 12 17 29 21 18 8 12 14 16 16 14 15 15 19 24 24 25 27 27 28 28 28 29 28 23 18 18 22 23 23 27 28 29
2 11 10 3 2 3 5 3 9 6 9 19 20 21 16 15 8 7 9 10 10 13 15 15 19 21 21 21 22 23 25 25 26 27 27 26 24 20 22 24 25 27 28 28
5 6 14 5 9 17 9 8 7 7 8 12 17 17 15 5 8 6 7 7 9 10 11 11 13 16 18 20 20 21 24 24 26 28 27 27 28 25 21 21 25 27 28 28
11 9 16 28 24 14 16 21 20 9 10 12 15 21 21 7 7 9 5 5 5 7 9 11 15 16 19 21 24 26 23 22 24 25 24 23 24 27 27 24 23 26 27 26
4 3 9 9 9 0 6 10 15 18 7 21 19 13 6 14 17 12 8 3 3 7 8 9 12 15 17 20 23 23 23 25 25 25 24 21 23 25 26 28 26 24 24 27
5 3 7 12 13 16 9 6 5 5 4 9 13 20 20 17 18 14 8 7 8 7 6 10 11 13 15 17 18 20 24 23 24 24 24 25 24 25 25 26 26 24 23 24
1 10 12 14 11 8 9 10 15 15 16 9 18 22 24 13 7 11 15 12 12 10 10 13 12 12 15 16 17 18 21 22 24 23 22 23 25 26 25 25 27 27 26 25
1 3 4 7 11 14 19 20 23 24 25 26 26 26 5 4 7 10 13 15 18 15 13 15 14 17 17 18 18 18 18 20 22 24 25 25 27 27 27 27 27 26 28 25
6 5 6 12 16 14 13 17 18 20 24 15 14 7 2 3 8 13 13 14 16 15 13 16 17 19 21 20 18 19 19 19 19 18 19 20 24 28 29 31 30 27 24 22
10 4 5 8 3 12 7 5 3 6 2 4 4 7 4 5 12 15 15 16 18 16 15 15 19 24 26 25 23 21 19 20 20 19 19 18 19 22 25 26 27 28 26 22
16 11 5 4 7 11 14 6 3 2 7 10 9 8 7 10 15 18 14 14 19 19 18 19 19 22 26 27 26 23 23 23 22 21 20 19 20 22 23 25 28 28 28 27
6 13 8 4 6 8 3 4 2 3 11 6 7 8 11 14 13 15 19 16 16 22 22 20 23 25 27 29 26 24 26 25 25 23 22 21 22 20 24 27 29 30 29 30
3 3 13 11 9 7 7 3 5 6 8 3 7 12 14 14 14 18 18 18 22 20 22 24 25 27 30 28 24 26 29 29 28 27 24 22 22 23 27 29 29 30 31 31
5 6 4 2 3 9 3 5 6 9 14 19 18 20 18 19 19 20 19 17 14 19 26 29 27 30 32 29 28 29 31 33 31 31 27 25 26 27 28 29 33 30 29 30
6 8 4 8 5 3 7 12 15 16 17 19 18 17 13 13 14 15 16 18 18 24 24 26 26 30 33 32 31 31 34 31 33 28 24 25 27 29 31 31 32 32 28 26
11 11 10 11 17 20 21 17 16 16 17 14 6 6 8 12 13 16 16 16 15 24 24 26 28 29 32 31 32 32 34 30 23 26 28 30 31 35 36 34 31 29 28 25
11 6 9 14 18 19 19 18 15 8 1 3 5 7 9 11 14 15 16 17 21 25 26 27 28 30 34 34 34 34 35 35 36 36 37 37 35 34 33 32 30 29 31 29
14 18 11 14 19 15 17 12 2 3 2 4 7 10 9 11 14 15 16 22 25 25 28 27 28 29 32 34 35 35 35 35 35 34 31 29 29 29 29 30 33 33 37 39
Wind_Direction
140 209 212 232 227 258 284 272 281 279 283 291 287 285 280 280 274 265 273 283 294 290 310 341 335 330 311 287 266 251 240 234 220 216 216 219 222 222 222 219 221 218 220 217
170 233 232 292 274 246 258 270 274 282 291 291 295 296 282 266 263 263 277 287 287 302 343 9 13 18 358 331 311 290 268 253 231 225 223 224 233 233 233 229 226 219 217 215
239 259 240 214 243 250 246 261 280 284 314 281 308 287 273 257 251 271 254 267 281 305 348 23 22 24 17 9 351 326 288 253 237 230 230 231 235 232 227 226 226 221 218 214
253 280 231 211 246 237 271 264 258 277 299 298 16 297 301 269 284 270 30 312 291 358 19 51 39 14 20 7 1 355 330 294 269 242 231 229 228 237 239 238 232 225 218 214
245 168 171 210 234 182 256 46 223 228 275 304 262 265 355 169 266 309 52 28 355 322 28 32 20 15 24 19 22 19 13 0 318 269 245 245 244 250 252 250 246 231 227 221
256 117 216 237 162 189 123 293 292 232 257 257 300 238 19 16 135 107 359 350 353 29 36 29 31 28 22 18 18 17 19 17 359 298 263 253 259 257 251 241 241 239 232 225
190 211 222 190 242 161 171 273 295 270 243 269 344 285 250 299 291 335 347 11 32 30 28 26 19 15 13 14 16 20 16 11 8 349 310 285 269 267 262 251 244 233 228 227
272 273 193 166 216 260 206 235 239 267 273 288 282 265 270 88 347 36 51 57 41 33 28 23 19 17 14 13 12 10 14 17 10 1 348 319 299 280 270 260 247 241 233 226
255 250 205 232 212 206 149 209 257 272 274 281 272 270 272 238 73 59 42 23 21 22 21 19 17 14 12 9 6 5 5 6 9 7 359 348 326 302 284 271 258 249 237 230
289 283 223 181 165 216 244 332 248 226 255 252 263 267 260 286 343 63 33 29 18 14 16 11 2 2 1 2 2 2 4 3 1 2 1 356 345 323 302 287 267 256 249 240
291 252 265 265 245 261 250 250 238 267 248 251 255 260 271 3 70 19 26 33 19 22 22 14 5 359 354 355 360 360 1 357 358 357 357 355 352 348 327 301 284 271 258 246
258 275 274 271 272 266 263 259 256 249 240 227 249 258 283 312 73 65 25 29 32 27 7 357 353 354 355 352 353 352 352 353 350 350 350 353 352 355 353 336 311 291 272 256
36 233 264 269 239 70 241 252 263 267 290 254 260 257 290 322 333 31 26 64 357 348 2 356 353 353 351 346 345 344 346 344 345 341 340 346 351 352 351 349 336 309 284 273
16 229 272 274 290 314 272 230 253 268 265 295 272 283 288 297 327 337 8 348 336 331 343 351 352 346 345 339 338 336 337 339 338 340 339 341 348 345 342 341 343 340 311 284
2 266 278 278 302 298 282 286 280 270 265 259 283 285 285 329 329 328 323 330 331 324 335 342 340 339 334 328 326 327 328 331 334 332 333 333 339 339 337 341 336 342 344 309
60 278 327 286 281 275 289 280 270 269 267 264 261 269 59 331 307 309 317 327 326 320 326 333 329 325 323 318 317 319 317 319 326 327 326 329 335 337 336 336 337 334 341 336
268 262 269 270 290 310 280 260 272 276 274 293 273 293 128 332 328 322 311 300 304 294 303 324 324 322 317 308 304 303 304 306 309 309 308 318 326 330 331 333 332 328 325 329
240 223 251 276 330 257 306 32 298 286 264 199 177 186 201 312 320 308 305 289 292 280 287 307 315 313 315 308 302 300 296 297 297 297 300 305 313 318 321 322 320 319 319 316
230 237 243 251 243 302 296 241 257 290 290 215 222 207 242 294 302 292 305 284 279 272 277 289 300 303 304 300 300 298 294 296 292 291 293 297 306 306 312 312 314 311 311 307
207 220 213 167 243 265 328 167 120 142 280 191 199 242 270 307 300 298 313 302 285 272 271 289 299 301 298 296 300 295 292 294 288 291 290 292 301 298 303 304 304 308 305 301
137 193 222 231 251 272 260 180 142 267 298 140 271 281 284 285 281 286 298 291 288 284 289 296 300 298 295 298 296 293 292 287 291 288 282 285 291 295 300 300 299 299 300 299
212 182 200 163 235 271 178 145 231 294 305 305 304 300 300 299 297 299 303 306 309 301 303 303 303 298 297 298 300 293 286 291 293 288 277 281 286 294 298 298 297 294 291 291
255 219 238 212 231 237 212 262 279 288 288 291 298 304 313 303 307 310 305 305 304 304 304 304 302 299 297 299 299 295 293 299 296 287 282 285 290 293 295 293 291 291 286 280
251 238 247 266 250 256 264 272 277 281 284 298 306 313 317 306 310 304 306 307 310 310 309 309 306 300 298 302 301 298 301 305 307 301 294 293 292 292 291 287 282 278 277 273
240 202 228 250 260 268 268 267 272 282 23 311 313 319 318 318 310 310 307 309 310 311 312 309 304 299 299 303 302 302 302 303 299 296 293 292 290 287 285 280 276 274 270 270
236 240 239 252 262 262 272 294 118 238 256 327 325 320 323 320 311 313 308 311 312 310 309 305 303 301 300 300 299 299 296 293 293 292 293 290 290 287 283 282 284 276 273 274